Punkttermin-Prognose für Emden
Modell: MOSMIX (Deutscher Wetterdienst)
Modelllaufzeit: 21 UTC
Aktualisierung: stündlich
Donnerstag - 03.09.2026
| Wetter - | Temperaturen | Wind | Niederschlag | Druck | Sonne
Zeit GZ | Bewölkung | TT MAX MIN TG TM | DD FF FX1 | RR1 RR24 | PPPP | SS1 SS24
02:00 Uhr | --- | --- --- --- --- --- | --- --- --- | --- | --- | ---
03:00 Uhr | --- | --- --- --- --- --- | --- --- --- | --- | --- | ---
04:00 Uhr | --- | --- --- --- --- --- | --- --- --- | --- | --- | ---
05:00 Uhr | --- | --- --- --- --- --- | --- --- --- | --- | --- | ---
06:00 Uhr | --- | --- --- --- --- --- | --- --- --- | --- | --- | ---
07:00 Uhr | --- | --- --- --- --- --- | --- --- --- | --- | --- | ---
08:00 Uhr | --- | --- --- --- --- --- | --- --- --- | --- | --- | ---
09:00 Uhr | --- | --- --- --- --- --- | --- --- --- | --- | --- | ---
10:00 Uhr | --- | --- --- --- --- --- | --- --- --- | --- | --- | ---
11:00 Uhr | --- | --- --- --- --- --- | --- --- --- | --- | --- | ---
12:00 Uhr | --- | --- --- --- --- --- | --- --- --- | --- | --- | ---
13:00 Uhr | --- | --- --- --- --- --- | --- --- --- | --- | --- | ---
14:00 Uhr | --- | --- --- --- --- --- | --- --- --- | --- | --- | ---
15:00 Uhr | --- | --- --- --- --- --- | --- --- --- | --- | --- | ---
16:00 Uhr | --- | --- --- --- --- --- | --- --- --- | --- | --- | ---
17:00 Uhr | --- | --- --- --- --- --- | --- --- --- | --- | --- | ---
18:00 Uhr | --- | --- --- --- --- --- | --- --- --- | --- | --- | ---
19:00 Uhr | --- | --- --- --- --- --- | --- --- --- | --- | --- | ---
20:00 Uhr | --- | --- --- --- --- --- | --- --- --- | --- | --- | ---
21:00 Uhr | --- | --- --- --- --- --- | --- --- --- | --- | --- | ---
22:00 Uhr | --- | --- --- --- --- --- | --- --- --- | --- | --- | ---
23:00 Uhr | --- | --- --- --- --- --- | --- --- --- | --- | --- | ---
00:00 Uhr | bedeckt | 18 --- --- 17 --- | SW 17 --- | 0.0 | 1014 | 0.0
Freitag - 04.09.2026
| Wetter - | Temperaturen | Wind | Niederschlag | Druck | Sonne
Zeit GZ | Bewölkung | TT MAX MIN TG TM | DD FF FX1 | RR1 RR24 | PPPP | SS1 SS24
01:00 Uhr | leichter Regen | 18 --- --- 17 --- | SW 17 --- | 0.3 | 1013 | 0.0
02:00 Uhr | bedeckt | 18 --- --- 17 --- | SW 20 --- | 0.0 | 1013 | 0.0
03:00 Uhr | leichter Regen | 18 --- --- 18 --- | SW 20 --- | 0.1 | 1012 | 0.0
04:00 Uhr | leichter Regen | 18 --- --- 18 --- | SW 22 --- | 0.2 | 1010 | 0.0
05:00 Uhr | leichter Regen | 18 --- --- 18 --- | SW 26 --- | 0.2 | 1010 | 0.0
06:00 Uhr | leichter Regen | 18 --- --- 18 --- | SW 26 41 | 0.4 | 1009 | 0.0
07:00 Uhr | leichter Regen | 18 --- --- 17 --- | SW 26 41 | 0.5 | 1008 | 0.0
08:00 Uhr | Regen | 18 --- 17 18 --- | SW 26 41 | 0.7 | 1008 | 0.0
09:00 Uhr | Regen | 18 --- --- 18 --- | SW 26 41 | 0.9 | 1007 | 0.0
10:00 Uhr | Regen | 19 --- --- 18 --- | SW 28 44 | 1.0 | 1006 | 0.0
11:00 Uhr | Regen | 19 --- --- 17 --- | SW 28 46 | 1.3 | 1006 | 0.0
12:00 Uhr | Regen | 19 --- --- 17 --- | SW 30 50 | 1.5 | 1006 | 0.0
13:00 Uhr | Regen | 19 --- --- 17 --- | W 33 52 | 1.4 | 1006 | 0.0
14:00 Uhr | leichter Regen | 19 --- --- 17 --- | W 33 54 | 1.0 | 1006 | 0.0
15:00 Uhr | leichter Regen | 19 --- --- 17 --- | W 37 54 | 0.4 | 1007 | 0.0
16:00 Uhr | leichter Regen | 19 --- --- 17 --- | W 37 56 | 0.2 | 1007 | 0.1
17:00 Uhr | leichter Regen | 18 --- --- 18 --- | W 39 57 | 0.1 | 1008 | 0.2
18:00 Uhr | leichter Regen | 18 --- --- 17 --- | W 37 57 | 0.2 | 1008 | 0.1
19:00 Uhr | bedeckt | 18 --- --- 17 --- | W 37 56 | 0.0 | 1009 | 0.1
20:00 Uhr | bedeckt | 18 20 --- 17 --- | W 37 54 | 0.0 | 1010 | 0.1
21:00 Uhr | stark bewölkt | 18 --- --- 16 --- | W 37 54 | 0.0 | 1010 | 0.0
22:00 Uhr | stark bewölkt | 17 --- --- 16 --- | W 35 52 | 0.0 | 1011 | 0.0
23:00 Uhr | wolkig | 17 --- --- 16 | W 35 48 | 0.0 | 1011 | 0.0
00:00 Uhr | wolkig | 17 --- --- 15 18 | W 32 44 | 0.0 10.4 | 1012 | 0.0 0.6
Samstag - 05.09.2026
| Wetter - | Temperaturen | Wind | Niederschlag | Druck | Sonne
Zeit GZ | Bewölkung | TT MAX MIN TG TM | DD FF FX1 | RR1 RR24 | PPPP | SS1 SS24
01:00 Uhr | wolkig | 16 --- --- 15 --- | W 32 46 | 0.0 | 1012 | 0.0
02:00 Uhr | wolkig | 16 --- --- 15 --- | W 33 46 | 0.0 | 1012 | 0.0
03:00 Uhr | wolkig | 16 --- --- 15 --- | W 32 44 | 0.0 | 1013 | 0.0
04:00 Uhr | wolkig | 16 --- --- 15 --- | W 32 48 | 0.0 | 1013 | 0.0
05:00 Uhr | wolkig | 15 --- --- 14 --- | W 32 44 | 0.0 | 1013 | 0.0
06:00 Uhr | wolkig | 15 --- --- 14 --- | W 32 44 | 0.0 | 1014 | 0.0
07:00 Uhr | wolkig | 15 --- --- 14 --- | W 30 44 | 0.0 | 1014 | 0.1
08:00 Uhr | leichter Regen | 16 --- 14 15 --- | W 32 44 | 0.6 | 1014 | 0.2
09:00 Uhr | leichter Regen | 16 --- --- 16 --- | W 33 46 | 0.2 | 1015 | 0.4
10:00 Uhr | leichter Regen | 17 --- --- 16 --- | W 35 50 | 0.2 | 1016 | 0.5
11:00 Uhr | leichter Regen | 17 --- --- 17 --- | W 35 52 | 0.2 | 1016 | 0.4
12:00 Uhr | leichter Regen | 17 --- --- 18 --- | W 37 54 | 0.1 | 1016 | 0.4
13:00 Uhr | leichter Regen | 18 --- --- 19 --- | W 39 56 | 0.1 | 1017 | 0.4
14:00 Uhr | leichter Regen | 18 --- --- 19 --- | W 41 57 | 0.1 | 1018 | 0.5
15:00 Uhr | leichter Regen | 18 --- --- 19 --- | W 41 57 | 0.0 | 1019 | 0.5
16:00 Uhr | wolkig | 18 --- --- 19 --- | W 41 61 | 0.0 | 1020 | 0.5
17:00 Uhr | wolkig | 18 --- --- 19 --- | W 41 59 | 0.0 | 1020 | 0.5
18:00 Uhr | wolkig | 17 --- --- 18 --- | W 39 57 | 0.0 | 1021 | 0.5
19:00 Uhr | wolkig | 17 --- --- 17 --- | NW 37 56 | 0.0 | 1021 | 0.4
20:00 Uhr | wolkig | 17 19 --- 16 --- | NW 35 50 | 0.0 | 1022 | 0.3
21:00 Uhr | wolkig | 16 --- --- 15 --- | NW 35 50 | 0.0 | 1022 | 0.1
22:00 Uhr | wolkig | 16 --- --- 15 --- | NW 35 46 | 0.0 | 1023 | 0.0
23:00 Uhr | wolkig | 16 --- --- 14 | NW 32 44 | 0.0 | 1023 | 0.0
00:00 Uhr | wolkig | 15 --- --- 14 16 | NW 32 41 | 0.0 1.5 | 1024 | 0.0 5.5
Sonntag - 06.09.2026
| Wetter - | Temperaturen | Wind | Niederschlag | Druck | Sonne
Zeit GZ | Bewölkung | TT MAX MIN TG TM | DD FF FX3 | RR3 RR24 | PPPP | SS3 SS24
02:00 Uhr | wolkig | 15 --- --- 14 --- | NW 28 43 | 0.0 | 1024 | 0.0
05:00 Uhr | wolkig | 14 --- --- 13 --- | NW 22 --- | 0.0 | 1025 | 0.0
08:00 Uhr | wolkig | 15 --- 14 15 --- | W 17 --- | 0.0 | 1026 | 0.3
11:00 Uhr | wolkig | 17 --- --- 20 --- | SW 13 --- | 0.0 | 1026 | 1.7
14:00 Uhr | leicht bewölkt | 19 --- --- 23 --- | SW 13 --- | 0.0 | 1026 | 2.2
17:00 Uhr | leicht bewölkt | 20 --- --- 23 --- | SW 11 --- | 0.0 | 1025 | 2.3
20:00 Uhr | wolkig | 19 21 --- 18 --- | SO 9 --- | 0.0 | 1024 | 1.7
23:00 Uhr | wolkig | 17 --- --- 15 17 | SO 11 --- | 0.0 0.0 | 1022 | 0.2 8.2
Montag - 07.09.2026
| Wetter - | Temperaturen | Wind | Niederschlag | Druck | Sonne
Zeit GZ | Bewölkung | TT MAX MIN TG TM | DD FF FX3 | RR3 RR24 | PPPP | SS3 SS24
02:00 Uhr | wolkig | 16 --- --- 14 --- | SO 11 --- | 0.0 | 1021 | 0.0
05:00 Uhr | wolkig | 15 --- --- 14 --- | S 13 --- | 0.0 | 1019 | 0.0
08:00 Uhr | wolkig | 16 --- 14 15 --- | S 15 --- | 0.0 | 1018 | 0.3
11:00 Uhr | wolkig | 19 --- --- 20 --- | S 18 --- | 0.0 | 1017 | 1.3
14:00 Uhr | wolkig | 21 --- --- 23 --- | S 18 --- | 0.0 | 1017 | 1.7
17:00 Uhr | wolkig | 22 --- --- 23 --- | SW 17 --- | 0.0 | 1016 | 1.6
20:00 Uhr | wolkig | 20 23 --- 20 --- | W 15 --- | 0.0 | 1016 | 1.2
23:00 Uhr | wolkig | 19 --- --- 18 18 | SW 15 --- | 0.0 0.0 | 1016 | 0.1 6.2
Dienstag - 08.09.2026
| Wetter - | Temperaturen | Wind | Niederschlag | Druck | Sonne
Zeit GZ | Bewölkung | TT MAX MIN TG TM | DD FF FX3 | RR3 RR24 | PPPP | SS3 SS24
02:00 Uhr | wolkig | 18 --- --- 17 --- | SW 18 --- | 0.0 | 1015 | 0.0
05:00 Uhr | wolkig | 18 --- --- 16 --- | SW 20 --- | 0.0 | 1013 | 0.0
08:00 Uhr | wolkig | 17 --- 17 16 --- | SW 22 --- | 0.0 | 1012 | 0.1
11:00 Uhr | leichter Regen | 18 --- --- 19 --- | SW 24 43 | 0.0 | 1011 | 0.8
14:00 Uhr | leichter Regen | 18 --- --- 19 --- | SW 26 41 | 1.6 | 1011 | 1.1
17:00 Uhr | leichter Regen | 18 --- --- 18 --- | SW 28 44 | 1.0 | 1011 | 1.0
20:00 Uhr | leichter Regen | 17 19 --- 16 --- | SW 26 46 | 1.8 | 1009 | 0.6
23:00 Uhr | leichter Regen | 16 --- --- 14 17 | SW 28 --- | 0.7 5.1 | 1008 | 0.1 3.6
Mittwoch - 09.09.2026
| Wetter - | Temperaturen | Wind | Niederschlag | Druck | Sonne
Zeit GZ | Bewölkung | TT MAX MIN TG TM | DD FF FX3 | RR3 RR24 | PPPP | SS3 SS24
02:00 Uhr | leichter Regen | 15 --- --- 14 --- | SW 28 52 | 1.4 | 1008 | 0.0
05:00 Uhr | leichter Regen | 15 --- --- 13 --- | SW 30 52 | 1.1 | 1008 | 0.0
08:00 Uhr | leichter Regen | 14 --- 14 13 --- | SW 28 50 | 0.6 | 1008 | 0.1
11:00 Uhr | leichter Regen | 15 --- --- 15 --- | SW 30 50 | 0.9 | 1008 | 0.9
14:00 Uhr | leichter Regen | 16 --- --- 17 --- | W 33 50 | 1.6 | 1008 | 1.2
17:00 Uhr | leichter Regen | 16 --- --- 16 --- | W 33 50 | 0.9 | 1009 | 1.2
20:00 Uhr | leichter Regen | 15 17 --- 14 --- | W 30 50 | 1.7 | 1009 | 0.8
23:00 Uhr | leichter Regen | 15 --- --- 13 15 | W 30 46 | 1.3 9.5 | 1009 | 0.0 4.2
Donnerstag - 10.09.2026
| Wetter - | Temperaturen | Wind | Niederschlag | Druck | Sonne
Zeit GZ | Bewölkung | TT MAX MIN TG TM | DD FF FX3 | RR3 RR24 | PPPP | SS3 SS24
02:00 Uhr | leichter Regen | 14 --- --- 13 --- | W 30 52 | 1.1 | 1009 | 0.0
05:00 Uhr | leichter Regen | 14 --- --- 13 --- | W 30 50 | 1.4 | 1008 | 0.0
08:00 Uhr | leichter Regen | 14 --- 13 13 --- | W 28 50 | 2.0 | 1009 | 0.1
11:00 Uhr | leichter Regen | 14 --- --- 15 --- | W 26 44 | 0.4 | 1010 | 0.6
14:00 Uhr | leichter Regen | 15 --- --- 17 --- | W 30 46 | 1.5 | 1010 | 1.1
17:00 Uhr | leichter Regen | 15 --- --- 17 --- | W 32 44 | 1.8 | 1010 | 1.1
20:00 Uhr | leichter Regen | 15 16 --- 14 --- | W 26 43 | 1.8 | 1010 | 0.7
23:00 Uhr | leichter Regen | 14 --- --- 13 14 | W 28 --- | 1.5 11.5 | 1010 | 0.0 3.6
Freitag - 11.09.2026
| Wetter - | Temperaturen | Wind | Niederschlag | Druck | Sonne
Zeit GZ | Bewölkung | TT MAX MIN TG TM | DD FF FX3 | RR3 RR24 | PPPP | SS3 SS24
02:00 Uhr | leichter Regen | 14 --- --- 13 --- | W 28 46 | 1.1 | 1010 | 0.0
05:00 Uhr | leichter Regen | 14 --- --- 12 --- | W 26 46 | 0.9 | 1010 | 0.0
08:00 Uhr | leichter Regen | 14 --- 13 13 --- | W 26 46 | 1.0 | 1010 | 0.2
11:00 Uhr | stark bewölkt | 15 --- --- 16 --- | SW 24 43 | 0.0 | 1010 | 0.8
14:00 Uhr | stark bewölkt | 16 --- --- 18 --- | W 26 41 | 0.0 | 1010 | 1.3
17:00 Uhr | leichter Regen | 16 --- --- 18 --- | W 28 41 | 0.6 | 1010 | 1.3
20:00 Uhr | leichter Regen | 15 17 --- 16 --- | W 22 41 | 1.2 | 1011 | 0.9
23:00 Uhr | leichter Regen | 15 --- --- 14 15 | W 26 --- | 1.9 6.7 | 1011 | 0.0 4.4
Samstag - 12.09.2026
| Wetter - | Temperaturen | Wind | Niederschlag | Druck | Sonne
Zeit GZ | Bewölkung | TT MAX MIN TG TM | DD FF FX3 | RR3 RR24 | PPPP | SS3 SS24
02:00 Uhr | leichter Regen | 15 --- --- 13 --- | W 26 44 | 2.0 | 1011 | 0.0
05:00 Uhr | leichter Regen | 14 --- --- 12 --- | W 26 44 | 1.5 | 1010 | 0.0
08:00 Uhr | leichter Regen | 14 --- 13 13 --- | W 28 46 | 1.4 | 1010 | 0.2
11:00 Uhr | leichter Regen | 15 --- --- 16 --- | W 26 44 | 1.3 | 1011 | 0.8
14:00 Uhr | leichter Regen | 16 --- --- 19 --- | W 28 43 | 1.1 | 1012 | 1.2
17:00 Uhr | leichter Regen | 16 --- --- 19 --- | W 28 41 | 0.8 | 1012 | 1.0
20:00 Uhr | leichter Regen | 15 17 --- 16 --- | W 24 41 | 0.9 | 1012 | 0.6
23:00 Uhr | leichter Regen | 15 --- --- 13 15 | W 26 --- | 1.8 10.8 | 1013 | 0.0 3.7
Sonntag - 13.09.2026
| Wetter - | Temperaturen | Wind | Niederschlag | Druck | Sonne
Zeit GZ | Bewölkung | TT MAX MIN TG TM | DD FF FX3 | RR3 RR24 | PPPP | SS3 SS24
02:00 Uhr | wolkig | 14 --- --- 13 --- | W 24 --- | 0.5 | 1012 | 0.0
05:00 Uhr | wolkig | 14 --- --- 13 --- | W 22 --- | 0.0 | 1012 | 0.0
08:00 Uhr | wolkig | 14 --- 13 13 --- | W 22 --- | 0.0 | 1015 | 0.1
11:00 Uhr | wolkig | 15 --- --- 17 --- | W 22 --- | 0.0 | 1015 | 1.2
14:00 Uhr | wolkig | 16 --- --- 19 --- | NW 26 --- | 0.0 | 1015 | 1.6
17:00 Uhr | wolkig | 16 --- --- 20 --- | NW 24 --- | 0.0 | 1016 | 1.6
20:00 Uhr | wolkig | 17 18 --- 16 --- | W 20 --- | 0.0 | 1017 | 1.5
23:00 Uhr | wolkig | 16 --- --- 14 --- | W 17 --- | 0.0 0.5 | 1017 | 0.0


Wetter : Wetter/Bewölkung zum Termin (aktuelle Stunde) TT : Lufttemperatur in Grad Celsius zum Termin MAX : Maximum Lufttemperatur in Grad Celsius letzte 12 Stunden MIN : Minimum Lufttemperatur der vergangenen Nacht in Grad Celsius letzte 12 Stunden TG : Temperatur in 5cm überm Erdboden TM : Tagesmittel Lufttemperatur in Grad Celsius letzte 24 Stunden DD : Windrichtung zum Termin FF : Windgeschwindigkeit zum Termin FX1 : höchste Windspitze im Bezugszeitraum letzte 1 Stunde in km/h FX3 : höchste Windspitze im Bezugszeitraum letzte 3 Stunden in km/h PPPP : reduzierter Luftdruck auf Meereshöhe in hPa zum Termin RR1 : Niederschlagsmenge im Bezugszeitraum letzte 1 Stunde in mm = l/qm RR3 : Niederschlagsmenge im Bezugszeitraum letzte 3 Stunden in mm = l/qm RR24 : Niederschlagsmenge im Bezugszeitraum letzte 24 Stunden in mm = l/qm SS1 : Sonnenscheindauer letzte 1 Stunde SS3 : Sonnenscheindauer letzte 3 Stunden SS24 : Sonnenscheindauer letzte 24 Stunden --- : Wert nicht vorhanden